OBJECT E, 60749

Orbit data source: Space-Track

You're viewing an uncataloged RSO

Recently launched and/or uncataloged RSOs may have evolving metadata. Metadata may include the following, but is not limited to: Owner, Manufacturer, Bus, Motor, and Mission.

OBJECT E, 60749 is a Chinese satellite in SSO that was launched on Thu, 29 Aug 2024 UTC via a GUSHENXING 1 launch vehicle from the Yellow Sea Launch Area, China (YSLA). Unknown objects in Earth's orbit typically refer to objects detected orbiting the Earth but have not yet been identified or cataloged. These objects could be anything from previously untracked satellites, spent rocket stages, debris from satellite collisions, or even natural meteoroids temporarily captured by Earth's gravity.

Loading next visibility...
Identifier
60749, 2024-153E
Orbit
SSO
Country
Flag of CNCN / PRC
Related business
None
Manufacturer
Unknown
Mission
Operational Commercial Imaging
Bus & Motor
Unknown
Mass
Unknown
Launch date (UTC)
2024-08-29 (2 years ago)
Launch vehicle
GUSHENXING 1
Launch site
Yellow Sea Launch Area, China (YSLA)
Object type
Unknown
Shape & HBR
Box + 1 Pan, 2.5 m
Radar Cross Section
5.339 m², Medium (>0.1 m² and < 1m²)

Expand to show TLE details & history
Last TLE update: 6 hours ago

TLE from 6 hours ago
0 OBJECT E
1 60749U 24153E   26256.15327809  .00010341  00000-0  37114-3 0  9995
2 60749  97.6828  36.0876 0000353 286.9548  73.1652 15.28888451113268
Epoch: 2026-09-13T03:40Z
TLE epoch observation values (Epoch: 2026-09-13T03:40:43.226Z)
Latitude
-0.0001°
Longitude
-11.24451°
Altitude
482.158 km
Speed
7.624 km/s
True Right ascension
02h 24m 21s
True Declination
0° 00' 00"
Sunlit
Object was in full shadow at epoch
Visualization orbit readout
Latitude
Unknown
Longitude
Unknown
Altitude
Unknown
Speed
Unknown
Apparent Right ascension
Unknown
Apparent Declination
Unknown
Sunlit
N/A
Visualization observer readout
Local Sidereal Time
02:28:08
Azimuth
Unknown
Elevation
Unknown
Doppler factor
Unknown
Orbital elements
Apogee altitude
476.342 km
Perigee altitude
475.858 km
Semi-major axis
6,854.237 km
Eccentricity
0.00004
Inclination
97.6828°
RAAN
36.0876°
Arg. of periapsis
286.9548°
True anomaly
73.16907°
Mean anomaly
73.1652°
Eccentric anomaly
73.16714°
Mean motion
3.82476 °/min
Orbital period
94.12 mins
BSTAR
0.00037114
Loading maneuver chart data...
Computing Atmospheric mass density...
Loading historical data...
Loading historical data...
Loading historical data...
Loading historical data...
Loading historical data...
Loading historical data...
Loading historical data...

Documentation

Showing up to 5 results
|